Location: Aranbee
(34.0885°N, 118.2342°W)
Time: 13:02:53
(UTC+00:00)

Tiros 1 - Pass Details

Date: 05 December 2020
Orbit: 630 x 663 km, 48.4° (Epoch: 21 January)

Event Time Altitude Azimuth Distance (km) Brightness Sun altitude
Rises 20:45:23 0° 252° (WSW) 2,978 11.0 31.6°
Reaches altitude 10° 20:47:50 10° 260° (W) 2,071 10.2 31.4°
Maximum altitude 20:52:20 40° 330° (NNW) 974 8.1 31.1°
Drops below altitude 10° 20:56:53 10° 40° (NE) 2,081 9.4 30.8°
Sets 20:59:21 0° 48° (NE) 2,994 10.1 30.6°
